When you browse on this site, cookies collect data to enhance your experience and personalize the content and advertising you see.
Visit our Privacy Policy to learn more. By continuing to use the site, you agree to this use of cookies and data.
  • In Spain
  • List of Countries
  • For 7 days
  • Water Temperature
  • Satellite Maps
  • Weather Map
  • Weather Widgets
  • user-avatar
    Login

    Hourly Weather Tarim

    Today, 21 June, Friday

    Time Temperature Precipitation Wind Pressure Humidity
    00:00 +36°C° 0 mm 3 mps 703 mmHg 28%
    01:00 +36°C° 0 mm 3 mps 703 mmHg 32%
    02:00 +35°C° 0 mm 2 mps 702 mmHg 35%
    03:00 +34°C° 0 mm 2 mps 702 mmHg 39%
    04:00 +33°C° 0 mm 1 mps 702 mmHg 40%
    05:00 +33°C° 0 mm 1 mps 703 mmHg 40%
    06:00 +33°C° 0 mm 1 mps 703 mmHg 41%
    07:00 +35°C° 0 mm 1 mps 704 mmHg 35%
    08:00 +38°C° 0 mm 2 mps 704 mmHg 29%
    09:00 +40°C° 0 mm 2 mps 704 mmHg 22%
    10:00 +42°C° 0 mm 3 mps 704 mmHg 18%
    11:00 +44°C° 0 mm 3 mps 704 mmHg 14%
    12:00 +45°C° 0 mm 3 mps 703 mmHg 10%
    13:00 +46°C° 0 mm 5 mps 703 mmHg 10%
    14:00 +47°C° 0 mm 6 mps 702 mmHg 9%
    15:00 +47°C° 0 mm 7 mps 702 mmHg 8%
    16:00 +46°C° 0 mm 7 mps 702 mmHg 9%
    17:00 +45°C° 0 mm 7 mps 702 mmHg 9%
    18:00 +44°C° 0 mm 7 mps 702 mmHg 10%
    19:00 +42°C° 0 mm 6 mps 702 mmHg 11%
    20:00 +41°C° 0 mm 5 mps 703 mmHg 11%
    21:00 +38°C° 0 mm 4 mps 703 mmHg 12%
    22:00 +37°C° 0 mm 3 mps 703 mmHg 12%
    23:00 +36°C° 0 mm 3 mps 703 mmHg 13%

    Tomorrow, 22 June, Saturday

    Time Temperature Precipitation Wind Pressure Humidity
    00:00 +35°C° 0 mm 3 mps 702 mmHg 14%
    01:00 +34°C° 0 mm 2 mps 702 mmHg 18%
    02:00 +32°C° 0 mm 1 mps 702 mmHg 23%
    03:00 +30°C° 0 mm 1 mps 701 mmHg 28%
    04:00 +29°C° 0 mm 0 mps 702 mmHg 30%
    05:00 +29°C° 0 mm 0 mps 702 mmHg 32%
    06:00 +29°C° 0 mm 0 mps 702 mmHg 34%
    07:00 +31°C° 0 mm 0 mps 703 mmHg 29%
    08:00 +33°C° 0 mm 0 mps 703 mmHg 25%
    09:00 +36°C° 0 mm 0 mps 704 mmHg 20%
    10:00 +40°C° 0 mm 1 mps 703 mmHg 16%
    11:00 +42°C° 0 mm 2 mps 703 mmHg 12%
    12:00 +44°C° 0 mm 3 mps 703 mmHg 8%
    13:00 +45°C° 0 mm 4 mps 702 mmHg 7%
    14:00 +45°C° 0 mm 4 mps 702 mmHg 6%
    15:00 +46°C° 0 mm 5 mps 701 mmHg 5%
    16:00 +45°C° 0 mm 5 mps 701 mmHg 5%
    17:00 +43°C° 0 mm 5 mps 701 mmHg 5%
    18:00 +42°C° 0 mm 5 mps 702 mmHg 5%
    19:00 +40°C° 0 mm 4 mps 702 mmHg 8%
    20:00 +38°C° 0 mm 4 mps 702 mmHg 11%
    21:00 +36°C° 0 mm 3 mps 703 mmHg 14%
    22:00 +35°C° 0 mm 3 mps 702 mmHg 20%
    23:00 +34°C° 0 mm 2 mps 702 mmHg 26%

    Day after tomorrow, 23 June, Sunday

    Time Temperature Precipitation Wind Pressure Humidity
    00:00 +32°C° 0 mm 1 mps 702 mmHg 31%
    01:00 +31°C° 0 mm 1 mps 702 mmHg 35%
    02:00 +30°C° 0 mm 1 mps 701 mmHg 38%
    03:00 +27°C° 0 mm 0 mps 701 mmHg 41%
    04:00 +29°C° 0 mm 1 mps 701 mmHg 43%
    05:00 +29°C° 0 mm 1 mps 702 mmHg 45%
    06:00 +29°C° 0 mm 1 mps 702 mmHg 47%
    07:00 +31°C° 0 mm 1 mps 702 mmHg 40%
    08:00 +34°C° 0 mm 1 mps 703 mmHg 33%
    09:00 +36°C° 0 mm 1 mps 703 mmHg 26%
    10:00 +37°C° 0 mm 1 mps 703 mmHg 21%
    11:00 +40°C° 0 mm 1 mps 703 mmHg 16%
    12:00 +41°C° 0 mm 1 mps 702 mmHg 10%
    13:00 +42°C° 0 mm 1 mps 702 mmHg 10%
    14:00 +42°C° 0 mm 1 mps 701 mmHg 9%
    15:00 +43°C° 0 mm 2 mps 701 mmHg 9%
    16:00 +42°C° 0 mm 2 mps 701 mmHg 10%
    17:00 +41°C° 0 mm 2 mps 701 mmHg 10%
    18:00 +41°C° 0 mm 2 mps 702 mmHg 11%
    19:00 +39°C° 0 mm 3 mps 702 mmHg 19%
    20:00 +37°C° 0 mm 3 mps 702 mmHg 28%
    21:00 +35°C° 0 mm 4 mps 702 mmHg 37%
    22:00 +34°C° 0 mm 3 mps 702 mmHg 38%
    23:00 +34°C° 0 mm 3 mps 702 mmHg 39%

    24 June, Monday

    Time Temperature Precipitation Wind Pressure Humidity
    00:00 +32°C° 0 mm 2 mps 702 mmHg 40%
    01:00 +32°C° 0 mm 2 mps 702 mmHg 42%
    02:00 +31°C° 0 mm 2 mps 701 mmHg 43%
    03:00 +31°C° 0 mm 1 mps 701 mmHg 44%
    04:00 +31°C° 0 mm 1 mps 702 mmHg 44%
    05:00 +31°C° 0 mm 1 mps 702 mmHg 44%
    06:00 +31°C° 0 mm 1 mps 703 mmHg 44%
    07:00 +32°C° 0 mm 1 mps 703 mmHg 39%
    08:00 +34°C° 0 mm 1 mps 703 mmHg 34%
    09:00 +35°C° 0 mm 1 mps 703 mmHg 30%
    10:00 +37°C° 0 mm 1 mps 703 mmHg 25%
    11:00 +40°C° 0 mm 1 mps 703 mmHg 20%
    12:00 +41°C° 0 mm 1 mps 703 mmHg 15%
    13:00 +42°C° 0 mm 2 mps 702 mmHg 14%
    14:00 +43°C° 0 mm 4 mps 702 mmHg 13%
    15:00 +45°C° 0 mm 5 mps 702 mmHg 12%
    16:00 +43°C° 0 mm 5 mps 702 mmHg 13%
    17:00 +43°C° 0 mm 5 mps 702 mmHg 14%
    18:00 +42°C° 0 mm 5 mps 702 mmHg 16%
    19:00 +40°C° 0 mm 4 mps 703 mmHg 22%
    20:00 +37°C° 0 mm 3 mps 703 mmHg 27%
    21:00 +36°C° 0 mm 3 mps 703 mmHg 33%
    22:00 +35°C° 0 mm 2 mps 703 mmHg 36%
    23:00 +34°C° 0 mm 2 mps 703 mmHg 38%

    25 June, Tuesday

    Time Temperature Precipitation Wind Pressure Humidity
    00:00 +33°C° 0 mm 1 mps 703 mmHg 40%
    01:00 +32°C° 0 mm 1 mps 702 mmHg 40%
    02:00 +32°C° 0 mm 1 mps 702 mmHg 39%
    03:00 +31°C° 0 mm 1 mps 702 mmHg 39%
    04:00 +31°C° 0 mm 1 mps 702 mmHg 38%
    05:00 +31°C° 0 mm 1 mps 702 mmHg 37%
    06:00 +32°C° 0 mm 1 mps 703 mmHg 35%
    07:00 +35°C° 0 mm 2 mps 703 mmHg 31%
    08:00 +36°C° 0 mm 2 mps 704 mmHg 27%
    09:00 +38°C° 0 mm 3 mps 704 mmHg 22%
    10:00 +40°C° 0 mm 2 mps 704 mmHg 20%
    11:00 +41°C° 0 mm 2 mps 704 mmHg 17%
    12:00 +43°C° 0 mm 1 mps 703 mmHg 15%
    13:00 +43°C° 0 mm 4 mps 703 mmHg 16%
    14:00 +44°C° 0 mm 6 mps 702 mmHg 17%
    15:00 +44°C° 0 mm 9 mps 701 mmHg 18%
    16:00 +42°C° 0 mm 6 mps 702 mmHg 18%
    17:00 +42°C° 0 mm 4 mps 702 mmHg 19%
    18:00 +40°C° 0 mm 2 mps 702 mmHg 19%
    19:00 +39°C° 0 mm 2 mps 703 mmHg 20%
    20:00 +39°C° 0 mm 2 mps 703 mmHg 21%
    21:00 +38°C° 0 mm 2 mps 704 mmHg 23%
    22:00 +38°C° 0 mm 3 mps 703 mmHg 23%
    23:00 +37°C° 0 mm 3 mps 702 mmHg 24%

    26 June, Wednesday

    Time Temperature Precipitation Wind Pressure Humidity
    00:00 +36°C° 0 mm 4 mps 702 mmHg 25%
    01:00 +35°C° 0 mm 4 mps 701 mmHg 27%
    02:00 +35°C° 0 mm 3 mps 701 mmHg 29%
    03:00 +34°C° 0 mm 3 mps 701 mmHg 31%
    04:00 +34°C° 0 mm 3 mps 701 mmHg 31%
    05:00 +34°C° 0 mm 3 mps 702 mmHg 32%
    06:00 +34°C° 0 mm 2 mps 702 mmHg 32%
    07:00 +36°C° 0 mm 3 mps 702 mmHg 28%
    08:00 +39°C° 0 mm 3 mps 703 mmHg 23%
    09:00 +42°C° 0 mm 3 mps 703 mmHg 19%
    10:00 +44°C° 0 mm 4 mps 702 mmHg 16%
    11:00 +47°C° 0 mm 4 mps 702 mmHg 13%
    12:00 +48°C° 0 mm 4 mps 702 mmHg 10%
    13:00 +48°C° 0 mm 5 mps 701 mmHg 9%
    14:00 +49°C° 0 mm 6 mps 700 mmHg 9%
    15:00 +50°C° 0 mm 7 mps 700 mmHg 8%
    16:00 +48°C° 0 mm 6 mps 700 mmHg 8%
    17:00 +47°C° 0 mm 5 mps 700 mmHg 8%
    18:00 +45°C° 0 mm 4 mps 700 mmHg 8%
    19:00 +43°C° 0 mm 3 mps 700 mmHg 10%
    20:00 +40°C° 0 mm 3 mps 700 mmHg 12%
    21:00 +39°C° 0 mm 2 mps 700 mmHg 14%
    22:00 +37°C° 0 mm 2 mps 700 mmHg 21%
    23:00 +36°C° 0 mm 2 mps 700 mmHg 28%
    Show more